Find Starlink 31812

NORAD ID: 59800 Int'l Des: 2024-093 Owner: SPXS Country: US Constellation: starlink operational
LEOCIRCULAR

Current View

Loading 3D Globe...

About Starlink 31812

Starlink 31812 (NORAD 59800) is a starlink constellation satellite (v2 mini) launched May 18, 2024 by SPXS of US. It operates in LEO, CIRCULAR orbit with a mass of 730.00 kg.

About Starlink 31812

Description loading...

Upcoming Passes

Passes for default location (London). Set your location on the main map for personalized predictions.

Altitude History

Loading altitude history...

Two-Line Element Set

1 59800U 24093U 26162.38362643 -.00000761 00000-0 -18131-4 0 9996
2 59800 43.0012 39.8508 0001164 262.2594 97.8125 15.27570813117098
Epoch: Jun 11, 2026 • Age: 49 hours

Current Status

Altitude 482.2 km
Velocity 7.63 km/s
Sub-Earth Point 10.98°N, 10.28°W
Launch Date May 18, 2024
Age 2 years
Type internet

Technical Details

Classification Payload
Mass 730.00 kg
Dry Mass 700.00 kg
Total Mass 730.00 kg
Length 0.30 m
Diameter 4.10 m
Span 29.00 m
Shape Box + pan
Manufacturer SPXS
Bus Type Starlink V2M
Phase Status In Orbit
Owner/State SPXS/US

Most Searched